Погода в Ялтуровске

Погода в Ялтуровске : погода сейчас, прогноз погоды и архив. Всё, что Вы хотите узнать о погоде в Ялтуровске!

Хотите узнать прогноз погоды в Ялтуровске? Тогда Вам сюда: Погода в Ялтуровске

Поиск расширенной информации на нашем сайте:

Другие новости

Новости СМИ2

Главная страница сайта

Новости сайта

02.10.2013

Напоминаем, что на нашем новом сайте вы можете получить высокодетализированные прогнозы погоды по пунктам России, СНГ и мира (включающие важные для авиации метеовеличины, такие как направление и скорость ветра, видимость, явления погоды, количество и форма облачности, нижняя и верхняя граница облачности), а также ознакомиться с разнообразными материалами по авиационной метеорологии и подборкой полезных ссылок на эту тему.

Сайт Метеоцентр.Азия посвящён разработке технологий оптимизации авиаметеорологического обслуживания, включая проектирование и перспективное создание нескольких автоматизированных авиаметеорологических систем:
- система выпуска высокодетальных прогностических карт явлений погоды для нижнего воздушного пространства по России и ближнему зарубежью;
- система верификации прогнозов TAF (выпускаемых синоптиками официальных АМСГ РФ и ближнего зарубежья) и AUTOTAF (выпускаемых сайтом Метеоцентр.Азия) - выявление ошибок, онлайн-сопоставление с фактической погодой METAR, автоматическое внесение коррективов в прогнозы при резком отклонении фактической погоды от прогноза, подсчёт оправдываемости прогнозов по элементам и в целом;
- система обработки, анализа и отображения авиаметеорологической информации для применения провайдерами метеорологической информации.


Погода в Ялтуровске - сегодня

Время (UTC), дата Ветер
(°,м/с) 
Видим.   Явления Облачность Т
(°С)
Тd
(°С)
f(%) Тe
(°С)
Pmin
(гПа)
dP
(гПа)
Po
(мм)
O2
(г/м3)
Тmin Tmax R s Состояние
почвы
18 17.01.17 180 (Ю) 20000 м    3/0 верхняя 
[Ci sp]
-20.2 -22.7 80 -26  1039.1  -0.4  773  338           
21 17.01.17 190 (Ю) 20000 м    ясно 
-20.8 -23.4 80 -25  1038.2  -0.8  772  339           
00 18.01.17 190 (Ю) 20000 м    ясно 
-19.7 -22.2 80 -22  1037.8  -0.4  772  337           
03 18.01.17 190 (Ю) 20000 м  [диам. изморози 4 мм]  3/0 верхняя 
[Ci sp]
-20.5 -23 80 -25  1037  -0.9  771  338  -21      54  равномерный
сухой снег
100% 
06 18.01.17 190 (Ю) 20000 м  [диам. изморози 4 мм]  6/0 верхняя 
[Ci fib]
-20.1 -22.6 80 -24  1036.6  -0.2  771  337           
09 18.01.17 180 (Ю) 20000 м  [диам. изморози 4 мм]  ясно 
-17.3 -19.5 83 -21  1035.6  -0.8  770  333           
12 18.01.17 190 (Ю) 20000 м  [диам. изморози 0 мм]  ясно 
-17.2 -19.4 83 -20  1034.6  -1  770  333           
15 18.01.17 180 (Ю) 20000 м    ясно 
-20.6 -23.1 80 -25  1033.8  -1.3  769  337    -17.2       
18 18.01.17 180 (Ю) 20000 м    ясно 
-20.4 -23 80 -26  1033.4  -1.2  768  336           
21 18.01.17 180 (Ю) 20000 м    ясно 
-19.7 -22.1 81 -25  1030.8  -1.4  767  335           
00 19.01.17 190 (Ю) 20000 м    ясно 
-20.3 -22.9 80 -23  1029.9  -0.9  766  335           
03 19.01.17 180 (Ю) 20000 м    3/0 верхняя 
[Ci fib]
-21.2 -23.7 80 -26  1028.4  -1.8  765  336  -21.4      54  равномерный
сухой снег
100% 
06 19.01.17 190 (Ю) 4000 м  слаб. снег  10/0 средняя 
[As op]
-16.6 -18.8 83 -19  1027.2  -0.7  764  329           
09 19.01.17 180 (Ю) 20000 м  {снег}  8/0 средняя, верхняя 
[Ac trans|Ci sp]
-14.6 -16.7 84 -18  1025.3  -0.7  763  326           
12 19.01.17 180 (Ю) 20000 м  {снег}  6/0 верхняя 
[Ci sp]
-17.1 -19.3 83 -22  1023.4  -2  761  329           
15 19.01.17 200 (Ю) 20000 м    10/0 средняя 
[Ac As]
-17.3 -19.2 85 -22  1022.6  0.7  761  329    -14.5  0.0     
18 19.01.17 180 (Ю) 20000 м    10/0 средняя 
[Ac As]
-18.2 -20.6 81 -23  1020.6  -1.7  759  329           
21 19.01.17 190 (Ю) 20000 м    6/0 верхняя 
[Ci sp]
-21.5 -24.2 79 -26  1019.1  -1.5  758  333           
00 20.01.17 190 (Ю) 20000 м    6/0 верхняя 
[Ci sp]
-22 -24.7 79 -28  1016.9  -2.2  756  333           
03 20.01.17 190 (Ю) 20000 м    6/0 верхняя 
[Ci sp]
-22.3 -24.1 85 -28  1015.5  -0.6  755  333  -22.3      54  равномерный
сухой снег
100% 
06 20.01.17 180 (Ю) 20000 м    6/0 верхняя 
[Ci sp]
-21.3 -24 79 -29  1013.2  -2.4  754  331  -22.8         
09 20.01.17 170 (Ю) 6{12}  20000 м    6/0 верхняя 
[Ci sp]
-18.9 -21.7 79 -26  1009.8  -3.3  751  327           
12 20.01.17 170 (Ю) 8-11{11}  20000 м  позёмок  10/0 верхняя 
[Ci sp]
-17.8 -20.9 77 -26  1006.3  -3.4  749  324           
15 20.01.17 180 (Ю) 7{11}  20000 м  позёмок  10/0 верхняя 
[Ci sp]
-18.8 -21.4 80 -27  1004.6  -2.6  747  325    -17.6       
18 20.01.17 180 (Ю) 7-10{13}  20000 м  позёмок  10/0 верхняя 
[Ci sp]
-17.5 -20.4 78 -25  1000.7  -2.9  744  322           
Время (UTC), дата Ветер
(°,м/с) 
Видим.   Явления Облачность Т
(°С)
Тd
(°С)
f(%) Тe
(°С)
Pmin
(гПа)
dP
(гПа)
Po
(мм)
O2
(г/м3)
Тmin Tmax R s Состояние
почвы

Для получения пояснительной информации подведите курсор к названию столбца.

ПОГОДА в Ялтуровске - архив

Всё, что Вы хотите узнать о погоде в Ялтуровске - удобно и подробно!

Выберите нужную дату (начиная с 1 января 2015* года) и нажмите кнопку "Найти".
Будут отображены архивные сводки погоды по пункту Ялтуровск, начиная с указанной даты.


Отображать данные в формате CSV (для использования в таблицах Excel)


Внимание! Наш архив погоды предназначен исключительно для личного некоммерческого использования в познавательных целях. Если Вам необходимы официальные справки о состоянии погоды (для производственных, юридических, коммерческих и т.п. целей), обращайтесь в органы Росгидромета.

*Примечание: данная дата относится к архиву по метеостанциям СССР (Россия, СНГ, Балтия).
Архив по метеостанциям Зарубежной Европы и Азии (кроме Китая) хранится 10 дней, по другим регионам земного шара (Китай, Африка, Америка, Австралия, Океания) - 1 день.

Ялтуровск - район местоположения метеостанции


Название, широта, долгота, высота метеостанции:
Ялтуровск 56.7°ш. 66.3°д. 61 м над ур. моря [Российская Федерация]

Дополнительная информация

В oтличие oт бoльшинства пoгoдных сайтoв мы публикуем пoдрoбную метеoинфoрмацию в детальнoм прoфессиoнальнoм фoрмате.

Характеристики температуры и влажнoсти вoздуха измеряются на высoте 2 м в тени вдали oт зданий и деревьев.
Скoрoсть ветра измеряется на высoте 10 м (на урoвне рoста челoвека скoрoсть ветра ниже в 1.5-2 раза). Если метеoстанция нахoдится в гoрoде или в лесу, тo скoрoсть ветра занижена на 2-4 м/с пo сравнению с oткрытым местoм. Скoрoсть ветра над акватoриями крупных рек и oзёр, а также на вершинах хoлмoв на 2-5 м/с выше, чем в oбычных услoвиях.
Атмoсфернoе давление в разных тoчках местнoсти мoжет значительнo oтличаться oт давления на метеoстанции, в зависимoсти oт услoвий рельефа (при пoдъёме на 10 м давление пoнижается примернo на 1 мм рт.ст.).